Temperature
18 18 18 18 18 17 17 17 17 17 17 17 17 17 17 17 17 17 18 18 18 18 17 17 18 17 17 17 17 17 17 18 18 18 18 17 17 17 17 17 17 16 16
18 17 18 17 17 17 17 17 17 17 17 17 17 17 17 17 17 17 17 17 18 17 17 17 17 17 17 17 17 17 17 17 18 18 18 17 17 17 17 17 17 16 16
17 17 17 17 17 17 17 17 17 17 16 16 16 16 16 17 17 17 17 17 17 17 17 17 17 17 17 17 17 17 17 17 17 17 17 17 17 17 17 17 17 17 16
17 17 17 16 16 16 16 16 16 16 16 16 16 16 16 16 16 17 17 17 17 17 17 17 17 17 17 17 17 17 17 17 17 17 17 17 17 17 17 17 17 17 17
16 16 16 16 16 16 16 16 16 16 16 16 16 16 16 16 16 16 16 17 17 17 17 17 17 17 17 17 17 17 17 17 17 17 17 17 17 17 17 17 17 17 17
16 16 16 16 15 15 15 15 15 15 15 15 15 15 16 16 16 16 16 16 16 16 17 17 17 17 17 17 17 17 16 17 17 17 17 17 17 17 17 17 17 17 17
16 15 15 15 15 15 15 15 15 15 15 15 15 15 16 16 16 16 16 16 16 16 16 16 16 17 17 17 17 17 16 16 16 16 17 17 17 17 17 17 17 17 17
15 15 15 15 15 15 15 15 14 14 15 14 14 14 14 15 16 16 16 16 16 16 16 16 16 16 17 17 17 17 16 16 16 16 16 17 17 17 17 17 17 17 16
15 14 14 14 14 14 14 14 14 14 14 14 14 13 13 14 14 15 15 15 15 16 16 16 16 16 16 17 17 16 16 16 16 16 16 16 16 16 17 17 17 16 16
14 14 14 14 14 14 14 14 14 13 13 13 13 13 13 13 13 14 14 15 15 15 15 16 16 16 16 16 16 16 16 16 16 16 16 16 16 16 17 17 17 16 16
13 13 13 13 13 13 13 13 13 13 13 13 13 13 13 13 13 13 13 14 15 15 15 15 16 16 16 16 16 16 16 16 16 16 16 16 16 16 16 16 16 16 16
12 12 12 12 12 12 12 12 13 13 13 13 13 13 13 13 13 13 12 13 14 14 15 15 15 16 16 16 16 16 16 16 16 16 16 16 16 16 16 16 16 16 16
12 12 11 11 11 12 12 12 12 12 12 12 12 12 12 12 12 12 12 12 13 14 14 15 15 15 16 16 16 16 16 16 16 16 16 16 16 16 16 16 16 16 16
11 11 11 11 11 11 11 11 11 11 12 12 12 12 12 12 12 12 12 12 12 13 13 14 15 15 15 16 16 16 16 16 16 16 16 16 16 16 16 16 16 16 16
11 10 10 10 10 10 10 10 10 11 11 11 11 11 11 12 11 11 11 12 11 11 12 13 14 15 15 15 15 16 16 16 16 16 16 16 16 16 16 16 16 16 16
10 10 10 10 10 10 10 10 10 10 10 11 11 11 11 11 11 11 11 11 11 11 11 12 13 14 14 15 15 15 16 15 15 16 16 16 16 16 16 16 16 16 16
9 9 9 9 9 9 9 9 9 10 10 10 10 10 11 11 11 11 11 11 11 11 11 12 12 13 14 14 15 15 15 15 15 15 15 15 15 15 15 16 16 16 16
9 9 9 9 9 9 9 9 9 9 9 9 10 10 10 10 10 11 11 11 11 11 11 11 12 12 13 13 14 14 15 15 15 15 15 15 15 15 15 16 16 16 16
9 9 9 9 9 9 9 9 9 9 9 9 9 9 9 10 10 10 10 10 11 11 11 11 11 12 12 12 13 13 14 14 14 14 14 15 15 15 15 15 16 16 16
9 9 8 8 8 8 8 8 8 8 8 9 9 9 9 9 9 10 10 10 10 10 10 10 11 11 12 12 12 13 13 13 14 14 14 14 14 15 15 15 15 16 16
8 8 8 8 8 8 8 8 8 8 8 8 8 8 9 9 9 9 9 10 10 10 10 10 10 11 11 11 12 12 12 13 13 13 13 13 14 14 14 15 15 15 15
8 8 8 8 8 8 8 8 8 8 8 8 8 8 8 8 9 9 9 9 10 10 10 10 10 10 11 11 11 11 12 12 12 12 13 13 13 13 14 14 14 15 15
8 8 8 8 8 8 8 8 7 7 7 7 8 8 8 8 8 8 9 9 9 9 10 10 10 10 10 11 11 11 11 12 12 12 12 12 12 13 13 13 14 14 14
8 8 8 8 8 8 8 8 7 7 7 7 7 7 7 8 8 8 8 8 9 9 9 10 10 10 10 10 11 11 11 11 11 11 12 12 12 12 12 12 13 13 13
8 8 8 8 8 8 8 7 7 7 7 7 7 7 7 7 8 8 8 8 8 9 9 9 10 10 10 10 10 10 11 11 11 11 11 11 11 11 12 12 12 12 13
8 8 8 8 8 7 7 7 7 7 7 7 7 7 7 7 7 7 7 8 8 8 9 9 9 10 10 10 10 10 10 11 11 10 11 11 11 11 11 11 11 12 12
Wind_Speed
4 4 3 3 4 5 5 4 5 6 7 9 11 11 11 13 14 14 13 17 19 20 21 23 25 26 27 27 26 25 25 24 23 23 22 21 20 20 19 18 18 17 16
3 2 2 2 3 5 5 5 5 5 6 6 7 9 11 13 14 15 15 16 19 20 21 22 25 27 28 28 28 27 27 26 25 24 24 23 22 21 20 20 19 19 18
4 3 3 3 3 4 5 4 4 4 4 5 7 8 8 11 12 14 16 15 16 19 21 23 24 27 29 29 29 28 28 28 27 26 25 25 24 23 22 22 21 20 20
5 3 3 3 3 4 3 3 3 3 4 5 6 7 7 7 11 13 15 15 15 15 18 22 24 26 29 30 30 30 29 29 28 28 28 27 26 25 24 23 23 22 21
4 3 3 3 3 2 2 2 2 2 3 5 6 7 7 8 9 11 12 14 15 15 15 18 23 25 27 30 30 30 29 29 29 29 29 28 28 27 26 25 24 24 23
3 2 2 2 2 1 2 2 3 2 3 4 6 7 7 8 8 10 11 10 12 16 16 17 17 20 25 26 28 29 29 29 29 30 30 30 29 28 27 27 26 26 25
1 2 2 2 2 2 3 3 2 3 3 2 3 5 6 8 9 9 9 9 10 13 15 16 16 16 16 22 25 28 29 29 30 31 31 31 30 29 29 28 27 27 26
2 2 3 3 3 3 3 3 3 2 2 2 2 2 4 4 4 7 7 9 10 8 11 14 15 16 16 15 19 26 29 29 30 31 31 31 30 30 30 29 29 28 27
4 4 4 3 4 3 4 5 4 4 3 2 3 3 2 3 4 3 4 6 7 7 9 9 13 15 16 15 17 23 28 29 30 30 30 31 31 30 30 29 29 28 28
5 5 4 4 4 4 5 6 5 5 4 4 3 4 5 4 3 4 3 3 5 7 8 9 9 11 15 15 17 20 24 27 29 28 28 29 29 29 29 29 29 29 28
5 5 4 4 4 4 5 6 5 5 4 4 4 3 3 4 5 5 5 4 3 4 6 7 7 7 12 14 14 17 21 24 26 26 25 26 28 28 28 28 29 28 28
5 6 5 4 5 4 5 6 5 6 5 5 5 4 3 3 3 4 5 5 5 4 4 5 6 6 9 12 15 18 20 21 23 24 24 25 26 26 27 27 27 27 27
4 6 5 5 5 5 5 5 5 6 6 6 6 5 5 5 4 3 4 4 4 3 3 2 3 4 6 9 12 17 18 19 20 21 21 22 23 23 24 25 25 25 25
6 7 7 6 7 6 6 5 5 6 5 7 8 7 5 6 5 4 3 3 4 3 2 3 1 2 3 6 9 13 13 17 17 17 17 17 18 19 20 21 21 22 22
6 7 7 7 7 7 6 6 5 6 5 6 7 7 6 6 5 5 4 4 3 4 3 2 2 1 1 2 5 8 9 12 14 14 14 14 15 16 17 18 18 19 19
7 7 8 7 7 7 7 6 6 7 7 7 6 7 7 6 6 6 5 5 4 4 4 2 2 2 1 0 2 4 6 10 12 13 13 13 13 13 14 14 15 16 17
7 7 8 8 8 8 7 7 8 8 8 8 7 8 9 8 7 6 6 5 5 5 6 4 2 1 1 1 2 4 5 6 8 12 13 13 12 12 11 11 11 12 13
8 8 8 8 9 9 8 8 9 9 9 10 10 9 10 8 9 7 7 7 6 6 5 5 2 1 0 2 3 4 5 6 7 11 13 12 11 10 9 9 9 9 9
8 8 8 9 9 9 9 9 9 10 10 10 10 10 10 10 10 8 9 8 7 6 5 5 3 2 1 2 3 3 6 5 6 10 12 11 11 10 9 8 8 7 8
9 9 9 9 10 10 10 10 10 10 11 11 11 11 11 11 11 11 9 10 8 7 6 5 5 3 2 2 4 4 4 4 5 6 8 9 11 11 9 9 8 7 7
10 9 10 10 10 9 10 10 10 10 10 11 11 11 11 13 14 12 9 10 10 8 7 6 6 4 4 4 5 4 5 6 4 4 5 5 6 6 6 7 7 7 7
10 9 10 10 11 10 11 14 12 10 10 11 11 11 11 13 15 15 16 14 13 11 10 8 6 7 7 6 5 6 6 6 4 5 5 4 3 4 4 4 6 7 8
9 10 10 10 11 12 15 16 17 12 11 11 12 11 10 11 12 11 12 14 15 16 14 10 9 9 8 8 9 9 8 7 5 7 6 4 3 3 3 5 7 8 9
9 10 11 11 11 12 14 15 15 12 11 12 12 12 11 11 11 10 11 10 10 12 13 10 9 9 8 9 9 9 8 6 5 5 5 4 3 3 3 5 7 9 10
10 10 10 11 11 12 13 14 12 8 9 11 11 11 12 12 13 13 11 11 10 9 10 12 11 9 9 10 9 8 9 8 5 4 3 4 4 4 3 2 6 9 11
10 10 10 10 10 11 12 12 10 6 8 9 9 10 13 13 13 14 12 11 11 10 8 9 9 8 8 9 12 10 10 9 6 4 5 6 6 5 4 2 3 5 8
Wind_Direction
225 224 230 236 245 249 250 254 254 252 244 239 237 237 237 236 236 234 235 235 234 232 233 230 223 219 215 210 208 208 207 205 202 199 198 198 195 192 191 191 191 190 190
221 227 238 235 240 247 253 253 252 252 251 244 244 243 243 243 240 237 236 237 236 233 234 234 229 222 219 215 212 209 209 210 207 203 201 201 200 197 196 196 196 195 195
205 206 219 232 238 245 248 250 255 256 260 255 254 253 249 245 243 240 239 236 235 236 237 237 234 228 222 219 216 212 210 211 210 207 204 204 203 201 200 199 200 199 199
204 203 215 232 241 244 246 250 251 259 262 263 264 264 258 251 249 245 241 237 234 235 237 238 236 232 226 223 221 217 213 212 212 210 208 206 205 204 203 203 203 203 203
222 217 227 237 238 240 251 268 258 247 264 271 272 266 258 253 251 248 241 238 235 233 232 236 237 235 231 227 224 222 218 215 214 213 211 209 208 207 206 206 205 205 206
224 213 237 252 251 247 250 245 254 250 256 267 277 276 265 256 250 246 243 239 236 235 232 232 235 237 233 229 226 225 224 219 217 217 214 212 211 209 208 208 208 207 208
271 247 257 261 251 244 248 246 246 255 257 244 273 287 278 256 247 245 240 237 237 235 231 230 229 229 231 229 224 224 225 222 221 220 216 214 212 211 209 210 210 210 210
307 273 258 262 256 252 262 248 223 238 254 223 231 292 305 304 269 246 236 234 239 235 233 232 227 223 223 222 222 223 223 221 223 223 219 215 213 211 210 211 212 212 213
309 294 274 261 256 239 249 245 223 219 240 250 219 226 264 286 312 291 248 240 241 238 238 234 226 221 220 220 220 221 220 219 221 223 221 217 214 212 210 211 212 213 214
308 298 282 270 259 246 247 250 232 221 219 241 247 233 235 250 276 305 306 269 256 248 243 240 232 221 219 219 218 216 217 218 219 221 220 216 214 213 212 211 213 214 214
303 296 285 275 267 256 250 249 242 226 219 224 226 232 242 248 245 259 286 300 293 262 249 240 233 226 221 217 217 218 216 215 216 218 218 215 213 212 212 213 215 217 216
297 293 286 276 271 262 254 249 243 236 228 229 230 225 225 232 237 243 265 287 292 284 266 244 233 229 224 219 219 216 213 213 212 213 212 212 210 209 211 214 217 219 219
283 282 283 277 273 264 259 252 245 243 233 230 231 232 230 234 237 240 257 276 282 288 279 258 240 233 226 216 218 213 211 208 206 206 207 208 207 206 208 212 216 217 218
268 276 279 274 270 268 268 257 250 249 239 235 239 233 233 236 231 231 237 264 289 288 280 281 283 247 230 215 212 202 207 198 194 194 196 199 199 200 202 206 210 213 217
270 272 273 273 272 268 264 259 254 256 249 242 242 238 234 238 232 231 231 232 250 278 289 299 308 336 297 208 194 188 187 184 180 179 182 187 189 192 197 202 207 212 215
273 280 279 276 274 271 266 258 257 258 255 251 245 243 241 238 234 230 227 228 227 242 265 286 309 331 345 119 145 152 158 158 166 167 169 172 173 177 185 192 199 207 213
279 277 277 277 275 272 267 258 256 257 254 256 252 245 245 239 233 229 224 225 226 227 249 263 271 311 356 148 117 114 124 130 143 147 150 153 158 164 172 181 190 198 205
279 276 276 275 274 272 264 258 260 259 252 253 252 247 249 244 234 229 223 224 224 221 230 252 255 253 269 172 142 129 119 123 128 137 138 140 144 150 159 168 175 185 192
283 282 276 273 273 271 268 263 258 259 255 252 250 246 246 240 237 230 224 223 222 222 219 233 246 231 198 171 145 129 123 117 116 123 121 122 127 131 136 144 153 162 172
281 280 277 274 272 271 269 266 261 258 256 254 251 247 244 237 235 230 226 223 218 216 216 222 233 231 209 186 162 152 143 130 122 116 108 108 110 109 113 122 133 146 157
282 278 279 279 275 272 266 261 257 257 254 255 254 250 246 241 236 229 225 218 212 210 209 214 221 217 210 188 181 161 159 139 124 130 124 112 107 100 96 101 112 131 142
285 283 281 279 278 274 268 265 265 262 257 255 256 254 251 251 245 235 228 218 208 205 205 205 212 218 214 201 187 168 158 156 158 154 140 123 111 102 82 82 102 118 128
288 288 285 281 278 274 269 269 269 266 258 254 251 251 253 248 235 232 231 227 220 215 204 199 206 212 208 202 190 183 179 170 159 155 142 132 123 107 82 75 98 111 118
289 288 287 285 282 280 275 270 270 267 259 252 247 243 243 246 239 227 224 224 223 223 217 211 211 213 210 200 194 188 174 147 114 141 146 136 134 116 98 78 86 103 111
292 289 287 286 285 286 282 278 273 268 259 255 249 241 236 239 235 223 222 221 222 229 225 216 210 211 202 191 180 171 167 161 159 158 146 130 134 121 110 95 83 96 105
288 290 288 285 283 284 285 285 281 264 259 257 251 243 236 232 228 215 216 215 217 221 216 208 207 208 203 194 183 183 180 173 159 160 160 139 145 145 135 123 107 105 103
Height
1537 1537 1537 1538 1538 1539 1539 1539 1539 1540 1540 1541 1541 1542 1543 1544 1545 1546 1548 1549 1551 1553 1555 1557 1559 1561 1563 1566 1568 1570 1573 1575 1578 1580 1583 1585 1587 1590 1592 1594 1597 1599 1601
1534 1534 1535 1535 1535 1535 1535 1535 1536 1535 1535 1535 1536 1537 1537 1538 1539 1541 1542 1544 1545 1547 1549 1551 1553 1556 1558 1561 1564 1566 1569 1572 1575 1577 1580 1583 1585 1587 1590 1592 1595 1597 1600
1531 1531 1531 1531 1532 1531 1532 1532 1531 1531 1530 1531 1530 1531 1531 1532 1533 1534 1536 1537 1539 1541 1543 1545 1547 1550 1553 1556 1559 1561 1564 1567 1571 1574 1577 1580 1582 1585 1588 1590 1593 1595 1598
1528 1528 1528 1528 1529 1528 1528 1528 1527 1526 1525 1525 1525 1525 1525 1525 1526 1527 1528 1530 1531 1533 1535 1538 1541 1544 1547 1550 1553 1556 1559 1562 1566 1569 1573 1576 1579 1582 1584 1587 1590 1593 1595
1526 1526 1525 1525 1525 1525 1524 1524 1523 1522 1521 1520 1520 1519 1519 1519 1519 1520 1520 1522 1523 1525 1528 1531 1534 1537 1540 1543 1546 1549 1553 1557 1560 1564 1568 1571 1575 1578 1581 1584 1587 1590 1592
1523 1522 1522 1522 1522 1521 1520 1520 1519 1518 1517 1516 1515 1514 1513 1513 1512 1512 1513 1514 1516 1518 1520 1523 1527 1530 1533 1536 1539 1542 1546 1550 1554 1558 1562 1566 1570 1573 1577 1580 1583 1586 1589
1520 1520 1519 1519 1518 1517 1517 1516 1515 1514 1514 1513 1511 1509 1508 1507 1506 1506 1506 1507 1509 1511 1513 1516 1519 1522 1526 1529 1532 1536 1540 1543 1547 1552 1556 1560 1564 1568 1571 1575 1578 1582 1585
1517 1516 1516 1515 1514 1514 1513 1512 1512 1511 1510 1510 1508 1506 1504 1503 1501 1501 1500 1501 1502 1504 1506 1509 1512 1515 1519 1522 1525 1529 1533 1536 1540 1545 1550 1554 1558 1562 1566 1570 1574 1577 1580
1514 1513 1512 1511 1510 1509 1509 1508 1508 1507 1507 1506 1506 1505 1503 1500 1498 1497 1496 1496 1497 1499 1500 1502 1505 1508 1512 1515 1518 1522 1526 1530 1534 1538 1542 1547 1551 1556 1560 1564 1568 1572 1575
1510 1509 1507 1506 1505 1505 1504 1504 1503 1503 1503 1502 1502 1502 1501 1500 1498 1495 1494 1493 1494 1494 1495 1496 1499 1501 1505 1508 1511 1515 1519 1523 1527 1531 1536 1540 1545 1549 1553 1558 1562 1566 1569
1506 1504 1503 1502 1501 1500 1499 1499 1499 1499 1498 1498 1498 1498 1497 1496 1495 1494 1491 1490 1490 1490 1491 1492 1493 1495 1498 1502 1505 1509 1513 1517 1521 1525 1529 1533 1538 1542 1547 1551 1555 1559 1563
1501 1500 1499 1497 1496 1495 1495 1494 1494 1494 1494 1494 1494 1494 1493 1493 1492 1491 1489 1487 1486 1486 1487 1487 1488 1490 1493 1496 1500 1503 1507 1511 1515 1519 1523 1528 1532 1536 1540 1545 1549 1553 1557
1496 1495 1494 1492 1491 1490 1490 1489 1489 1489 1489 1489 1489 1489 1489 1489 1489 1488 1487 1485 1483 1482 1482 1483 1484 1486 1488 1491 1495 1499 1502 1506 1510 1514 1518 1522 1526 1530 1534 1538 1542 1546 1550
1491 1490 1488 1487 1486 1485 1484 1484 1483 1483 1483 1483 1483 1484 1484 1484 1484 1484 1484 1483 1481 1480 1479 1479 1480 1482 1484 1486 1490 1493 1497 1501 1505 1509 1513 1516 1520 1524 1528 1532 1536 1540 1544
1486 1484 1483 1481 1480 1479 1478 1478 1477 1477 1477 1477 1477 1478 1478 1479 1480 1480 1480 1479 1480 1477 1476 1476 1477 1478 1480 1483 1486 1489 1493 1496 1500 1504 1508 1512 1515 1519 1523 1527 1531 1534 1538
1481 1479 1477 1476 1474 1473 1472 1472 1471 1471 1471 1471 1471 1471 1472 1473 1474 1475 1475 1475 1475 1475 1474 1473 1474 1475 1477 1479 1482 1485 1489 1492 1496 1500 1503 1507 1511 1514 1518 1522 1525 1529 1532
1475 1473 1471 1470 1468 1467 1466 1465 1465 1464 1464 1464 1464 1465 1465 1467 1468 1469 1470 1470 1471 1471 1470 1470 1471 1472 1474 1476 1479 1482 1485 1488 1492 1496 1499 1503 1506 1510 1513 1517 1520 1524 1527
1470 1468 1465 1464 1462 1461 1460 1459 1458 1458 1457 1457 1458 1458 1459 1460 1461 1462 1464 1465 1466 1466 1467 1466 1468 1469 1471 1473 1475 1478 1481 1485 1489 1492 1496 1499 1502 1506 1509 1512 1515 1519 1522
1464 1462 1459 1457 1456 1454 1453 1452 1451 1450 1450 1450 1450 1451 1452 1453 1454 1455 1457 1459 1460 1462 1462 1463 1464 1466 1467 1470 1472 1475 1478 1482 1485 1489 1492 1496 1499 1502 1505 1508 1511 1514 1517
1458 1455 1453 1451 1449 1447 1446 1445 1444 1443 1443 1443 1443 1443 1444 1445 1447 1449 1450 1452 1454 1456 1458 1459 1460 1462 1464 1467 1469 1472 1475 1478 1482 1485 1489 1493 1496 1499 1502 1505 1507 1510 1513
1452 1449 1446 1444 1442 1440 1439 1438 1437 1436 1435 1435 1435 1436 1436 1438 1439 1441 1443 1446 1448 1450 1452 1453 1455 1458 1459 1462 1465 1468 1472 1475 1479 1482 1486 1489 1493 1496 1498 1501 1504 1507 1509
1446 1443 1440 1438 1435 1434 1432 1431 1430 1428 1427 1427 1427 1428 1429 1430 1432 1434 1436 1439 1441 1444 1446 1448 1451 1452 1455 1458 1461 1464 1468 1472 1475 1479 1483 1487 1490 1493 1496 1498 1501 1504 1506
1440 1437 1435 1432 1429 1427 1426 1424 1422 1421 1420 1419 1420 1420 1421 1422 1424 1426 1429 1432 1434 1437 1441 1443 1445 1447 1450 1453 1456 1459 1463 1467 1471 1475 1480 1483 1487 1490 1493 1496 1498 1501 1504
1435 1432 1429 1426 1423 1421 1419 1417 1415 1414 1412 1412 1412 1413 1414 1415 1417 1420 1422 1424 1427 1431 1434 1437 1440 1443 1445 1448 1451 1455 1458 1463 1468 1472 1476 1480 1484 1487 1490 1493 1496 1499 1501
1431 1427 1424 1421 1417 1415 1413 1411 1409 1407 1405 1405 1405 1406 1406 1408 1410 1413 1415 1417 1421 1424 1428 1432 1435 1438 1441 1444 1446 1450 1453 1457 1462 1466 1471 1476 1480 1484 1488 1491 1494 1497 1499
1426 1423 1419 1416 1413 1409 1407 1405 1403 1400 1399 1398 1398 1399 1400 1401 1403 1406 1408 1411 1414 1418 1422 1427 1430 1433 1436 1439 1442 1445 1449 1453 1457 1462 1466 1472 1476 1481 1485 1489 1492 1494 1497